Regional Weather Roundup
Issued by NWS

Home | Current Version | Previous Version | Text Only | Print | Product List | Glossary On
Versions: 1 2 3 4 5 6 7 8 9 10 11 12 13 14 15 16 17 18 19 20 21 22 23 24 25 26 27
000
ASUS44 KLIX 221113
RWRLA
LOUISIANA WEATHER ROUNDUP
NATIONAL WEATHER SERVICE NEW ORLEANS LA
600 AM CDT SAT JUL 22 2017

NOTE: "FAIR" INDICATES FEW OR NO CLOUDS BELOW 12,000 FEET WITH NO
      SIGNIFICANT WEATHER AND/OR OBSTRUCTIONS TO VISIBILITY.
      SKY/WX - SKY CONDITION AND SIGNIFICANT WEATHER.
      TMP - AIR TEMPERATURE.    DP   - DEWPOINT TEMPERATURE.
      RH  - RELATIVE HUMIDITY.  PRES - PRESSURE.
      HX  - HEAT INDEX.         WCI  - WIND CHILL INDEX.

*  THESE STATIONS ARE NOT NWS OR FAA STATIONS AND ARE NOT UNDER
   NWS QUALITY CONTROL.

LAZ040-048-061>063-065-066-069-221200-
SOUTHEAST LOUISIANA

CITY           SKY/WX    TMP DP  RH WIND       PRES   REMARKS
N.O. INTL ARPT CLOUDY    79  77  94 S3        29.99R
N.O. LAKEFRONT CLOUDY    82  78  88 S5        30.00R
N.O. DOWNTOWN*   N/A     83  77  82 CALM        N/A
RESERVE*       FAIR      78  76  92 CALM      29.99S FOG
SLIDELL        CLOUDY    73  71  93 CALM      29.99R
BATON ROUGE    CLEAR     74  72  93 CALM      30.00R
BOOTHVILLE     NOT AVBL
BELLE CHASSE   NOT AVBL
BOGALUSA*      FAIR      73  70  89 CALM      30.02R
GALLIANO*      TSTM      76  72  88 CALM      30.03R
NEW ROADS*     FAIR      74  73  98 CALM      30.00R FOG
GONZALES*      FAIR      74  73  97 CALM      29.99R
HAMMOND*       MOCLDY    73  70  88 CALM      30.00R
HOUMA*         LGT RAIN  73  73 100 CALM      29.99
PORT FOURCHON* MOSUNNY   84  75  74 S6        29.99S

$$

LAZ041-044-053-054-221200-
SOUTHWEST LOUISIANA

CITY           SKY/WX    TMP DP  RH WIND       PRES   REMARKS
LAKE CHARLES   MOCLDY    79  78  97 SE6       29.98R
LAFAYETTE      MOCLDY    74  72  93 SW6       29.99R FOG
PATTERSON      CLOUDY    74  73  97 CALM      30.00R
SALT POINT       N/A     77  75  93 CALM      29.98R
NEW IBERIA     PTCLDY    75  70  84 CALM      30.00R
CHENAULT AIRPK MOCLDY    77  75  94 SE3       29.98R

$$

LAZ027-028-221200-
CENTRAL LOUISIANA

CITY           SKY/WX    TMP DP  RH WIND       PRES   REMARKS
FORT POLK      CLOUDY    75  74  96 CALM      29.98R
ALEXANDRIA INT CLEAR     74  73  97 SE5       29.97R
ALEXANDRIA     CLEAR     73  73 100 CALM      29.98R

$$

LAZ001-002-221200-
NORTHWEST LOUISIANA

CITY           SKY/WX    TMP DP  RH WIND       PRES   REMARKS
SHREVEPORT     PTCLDY    77  76  96 S3        29.96R
BARKSDALE AFB  CLEAR     76  76 100 CALM      29.96R
DTN SHREVEPORT CLEAR     80  75  84 S7        29.97R

$$

LAZ014-016-221200-
NORTHEAST LOUISIANA

CITY           SKY/WX    TMP DP  RH WIND       PRES   REMARKS
MONROE         CLEAR     76  73  91 S3        29.98R
TALLULAH       CLEAR     74  73  97 S3        29.98R

$$





USA.gov is the U.S. government's official web portal to all federal, state and local government web resources and services.